Newburgh, NY

5:52 AM EDT on July 27, 2017 (GMT -0400)
Stewart International

Weather History for KSWF - September, 2012

Change the Weather History Date:

Saturday, September 29, 2012

  Actual Average Record
Temperature  
Mean Temperature 56 °F -  
Max Temperature 60 °F 65 °F 80 °F (1987)
Min Temperature 53 °F 45 °F 29 °F (1976)
Degree Days  
Heating Degree Days 8    
Growing Degree Days 6 (Base 50)    
Moisture  
Dew Point 54 °F    
Average Humidity 93    
Maximum Humidity 100    
Minimum Humidity 77    
Precipitation  
Precipitation 0.00 in - - ()
Sea Level Pressure  
Sea Level Pressure 29.94 in    
Wind  
Wind Speed 6 mph (NNE)    
Max Wind Speed 12 mph    
Max Gust Speed -    
Visibility 6 miles    
Events Rain    
Averages and records for this station are not official NWS values.
T = Trace of Precipitation, MM = Missing Value Source: NWS Daily Summary

Daily Weather History Graph

Daily Weather History Graph

Search for Another Location

Airport or City:

Trip Planner

Search our weather history database for the weather conditions in past years. The results will help you decide how hot, cold, wet, or windy it might be!

Date:

Astronomy

Sep. 29, 2012 Rise Set
Actual Time 6:51 AM EDT 6:40 PM EDT
Civil Twilight 6:23 AM EDT 7:08 PM EDT
Nautical Twilight 5:51 AM EDT 7:40 PM EDT
Astronomical Twilight 5:19 AM EDT 8:12 PM EDT
Moon 6:11 PM EDT (9/29) 6:20 AM EDT (9/29)
Length of Visible Light 12h 44m
Length of Day
11h 49m
Full, 100% of the Moon is Illuminated
Sep 29
Full
Sep 29
Full
Oct 8
Last Quarter
Oct 15
New
Oct 21
First Quarter

Hourly Weather History & Observations

Time (EDT) Temp. Dew Point Humidity Pressure Visibility Wind Dir Wind Speed Gust Speed Precip Events Conditions
12:45 AM 55.4 °F 53.6 °F 94% 29.97 in 4.0 mi NNE 5.8 mph - N/A   Overcast
1:45 AM 53.6 °F 53.6 °F 100% 29.96 in 2.0 mi North 8.1 mph - N/A   Overcast
2:45 AM 53.6 °F 53.6 °F 100% 29.95 in 2.0 mi NNE 5.8 mph - N/A   Overcast
4:45 AM 53.6 °F 53.6 °F 100% 29.96 in 5.0 mi North 5.8 mph - N/A   Overcast
6:45 AM 53.6 °F 53.6 °F 100% 29.96 in 2.5 mi ENE 5.8 mph - N/A   Overcast
7:45 AM 53.6 °F 53.6 °F 100% 29.96 in 5.0 mi NNE 5.8 mph - N/A   Overcast
8:45 AM 55.4 °F 53.6 °F 94% 29.96 in 8.0 mi NNE 5.8 mph - N/A   Overcast
9:45 AM 57.2 °F 53.6 °F 88% 29.96 in 7.0 mi NNE 5.8 mph - N/A   Overcast
11:45 AM 57.2 °F 53.6 °F 88% 29.97 in 7.0 mi North 8.1 mph - N/A   Overcast
12:45 PM 59.0 °F 53.6 °F 82% 29.95 in 8.0 mi North 4.6 mph - N/A   Overcast
1:45 PM 60.8 °F 53.6 °F 77% 29.93 in 7.0 mi Variable 5.8 mph - N/A   Overcast
4:45 PM 60.8 °F 53.6 °F 77% 29.89 in 15.0 mi Calm Calm - N/A   Overcast
5:45 PM 59.0 °F 55.4 °F 88% 29.90 in 10.0 mi West 5.8 mph - N/A   Overcast
6:45 PM 57.2 °F 55.4 °F 94% 29.92 in 5.0 mi NNE 11.5 mph - N/A Rain Light Rain
7:45 PM 55.4 °F 55.4 °F 100% 29.93 in 5.0 mi NNE 9.2 mph - N/A Rain Light Rain
8:45 PM 55.4 °F 55.4 °F 100% 29.93 in 4.0 mi NE 6.9 mph - N/A Rain Light Rain
9:45 PM 55.4 °F 55.4 °F 100% 29.93 in 3.0 mi ENE 5.8 mph - N/A Rain Light Rain
10:45 PM 55.4 °F 53.6 °F 94% 29.93 in 2.0 mi East 4.6 mph - N/A Rain Light Rain
11:45 PM 53.6 °F 53.6 °F 100% 29.92 in 3.0 mi North 5.8 mph - N/A Rain Light Rain